Voltar ao catálogo

FENGYUN 1C DEB

AtivoSSO
NORAD 31431·DEBRIS·🇨🇳 China

Lançado May 10, 1999 de Taiyuan Satellite Launch Center

Loading…

Próximas Passagens (próximas 24 horas)

TLE

AtualizadoSource: Space-Track

Época: Sep 14, 2026, 02:53 UTC

1 31431U 99025BTT 26257.12057279  .00001286  00000-0  77139-3 0  9999
2 31431  98.5186 133.5445 0134592  39.6740 321.4182 14.04154858983954

Acompanhe FENGYUN 1C DEB em tempo real com AllMySat

Download on the App Store